Regional Weather Roundup
Issued by NWS Albany, NY

Home | Current Version | Previous Version | Text Only | Print | Product List | Glossary On
Versions: 1 2 3 4 5 6 7 8 9 10 11 12 13 14 15 16 17 18 19 20 21 22 23 24 25 26 27 28 29 30 31 32 33 34 35 36 37 38 39 40 41 42 43 44 45 46 47 48 49 50
339
ASUS41 KALY 060510
RWRALY

NEW YORK STATE HOURLY WEATHER ROUNDUP
NATIONAL WEATHER SERVICE ALBANY NY
1200 AM EST SAT FEB 06 2016

NOTE: "FAIR" INDICATES FEW OR NO CLOUDS BELOW 12,000 FEET WITH NO
SIGNIFICANT WEATHER AND/OR NO OBSTRUCTIONS TO VISIBILITY.

NYZ032-033-038>043-046>054-057>066-NYZ062>081-060600-
EAST


CITY           SKY/WX    TMP DP  RH WIND       PRES   REMARKS
ALBANY         CLEAR     24  13  62 CALM      30.30F
GLENS FALLS    CLEAR     22  14  71 CALM      30.28S
POUGHKEEPSIE   CLEAR     25  15  66 NE5       30.32R WCI  19
NEWBURGH       CLEAR     28  18  64 CALM      30.31R
MONTGOMERY     CLEAR     25  16  68 W6        30.31R WCI  18
WHITE PLAINS   CLEAR     30  14  51 NW10      30.28S WCI  21
ISLIP          CLEAR     22  14  71 NW3       30.29S
NEW YORK CITY  CLEAR     34  18  52 NW13G21   30.32S WCI  25
CENTRAL PARK   CLEAR     32  15  49 NW9G20    30.34S WCI  24
$$

NYZ005>009-017-018-044>046-055-056-060600-
CENTRAL


CITY           SKY/WX    TMP DP  RH WIND       PRES   REMARKS
FULTON         CLOUDY    29  21  72 SW5       30.29F WCI  24
SYRACUSE       MOCLDY    28  20  71 SW9       30.29F WCI  19
ROME           LGT SNOW  25  21  85 CALM      30.31S FOG
ELMIRA         CLEAR     23  17  78 W6        30.30F WCI  16
BINGHAMTON     CLEAR     23  16  74 W7        30.24F WCI  15
MONTICELLO     CLEAR     21  16  79 W8        30.27S WCI  12
$$

NYZ026>034-041>043-060600-
NORTH


CITY           SKY/WX    TMP DP  RH WIND       PRES   REMARKS
WATERTOWN      CLOUDY    27  22  81 S3        30.26F
FORT DRUM      NOT AVBL
MASSENA        CLOUDY    25  17  72 SW8       30.24F WCI  16
SARANAC LAKE   PTCLDY    12   8  84 SW5       30.16S WCI   4
PLATTSBURGH    CLEAR     25  11  55 SW3       30.24S
$$

NYZ001>004-010>016-019>021-060600-
WEST


CITY           SKY/WX    TMP DP  RH WIND       PRES   REMARKS
NIAGARA FALLS  CLOUDY    31  24  75 S7        30.26F WCI  24
BUFFALO        MOCLDY    28  18  66 S8        30.28F WCI  20
DUNKIRK        CLEAR     29  16  58 S13       30.29F WCI  19
JAMESTOWN      CLEAR     21  12  68 S7        30.24S WCI  13
WELLSVILLE     CLEAR     22  13  68 CALM      30.25S
ROCHESTER      PTCLDY    27  21  78 SW7       30.29F WCI  19
PENN YAN       CLEAR     27  17  66 S8        30.28F WCI  19
$$

             KEY
       WCI = WIND CHILL INDEX
       VSB = VISIBILITY
       HX  = HEAT INDEX
$$




USA.gov is the U.S. government's official web portal to all federal, state and local government web resources and services.